AZERSPACE 1

Last updated on Mon Sep 07 2026 00:02:58 GMT+0000 (Coordinated Universal Time)

1 39079U 13006B 26249.24446737 .00000119 00000+0 00000+0 0 9997 2 39079 0.0155 189.8001 0001362 355.2252 294.3201 1.00267913 49625
UTC large
Height (km)
Speed (km/s)
/
Latitude / Longitude
Inclination (degrees)
Orbital Period (minutes)
Azimuth
Elevation
Range (km)
Doppler Factor

Next 0 passes for location: London (51.5072 / 0.1276)

No passes found over London.
AZERSPACE 1